Springfield, MO

8:45 PM CDT on August 30, 2016 (GMT -0500)
Springfield-Branson Regional

Weather History for KSGF - May, 2013

Change the Weather History Date:

Sunday, May 19, 2013

  Actual Average Record
Temperature  
Mean Temperature 78 °F 66 °F  
Max Temperature 87 °F 76 °F 91 °F (1987)
Min Temperature 69 °F 55 °F 38 °F (1968)
Degree Days  
Heating Degree Days 0 2  
Month to date heating degree days 136 75  
Since 1 July heating degree days 4488 4549  
Cooling Degree Days 13 3  
Month to date cooling degree days 48 39  
Year to date cooling degree days 65 64  
Growing Degree Days 28 (Base 50)    
Moisture  
Dew Point 67 °F    
Average Humidity 71    
Maximum Humidity 97    
Minimum Humidity 45    
Precipitation  
Precipitation 0.14 in 0.15 in 2.70 in (1943)
Month to date precipitation 2.31 3.28  
Year to date precipitation 18.06 16.21  
Snow  
Snow 0.00 in - - ()
Month to date snowfall 1.4  
Since 1 July snowfall 12.7  
Snow Depth 0.00 in    
Sea Level Pressure  
Sea Level Pressure 29.75 in    
Wind  
Wind Speed 15 mph (SSE)    
Max Wind Speed 28 mph    
Max Gust Speed 35 mph    
Visibility 7 miles    
Events Rain , Thunderstorm    
T = Trace of Precipitation, MM = Missing Value Source: NWS Daily Summary

Daily Weather History Graph

Daily Weather History Graph

Search for Another Location

Airport or City:

Trip Planner

Search our weather history database for the weather conditions in past years. The results will help you decide how hot, cold, wet, or windy it might be!

Date:

Astronomy

May. 19, 2013 Rise Set
Actual Time 6:01 AM CDT 8:18 PM CDT
Civil Twilight 5:32 AM CDT 8:48 PM CDT
Nautical Twilight 4:56 AM CDT 9:24 PM CDT
Astronomical Twilight 4:16 AM CDT 10:04 PM CDT
Moon 2:31 PM CDT (5/19) 2:17 AM CDT (5/19)
Length of Visible Light 15h 16m
Length of Day
14h 17m
Waxing Gibbous, 65% of the Moon is Illuminated
May 19
Waxing Gibbous
May 24
Full
May 31
Last Quarter
Jun 8
New
Jun 16
First Quarter

Hourly Weather History & Observations

Time (CDT) Temp. Heat Index Dew Point Humidity Pressure Visibility Wind Dir Wind Speed Gust Speed Precip Events Conditions
12:52 AM 72.0 °F - 69.1 °F 91% 29.81 in 4.0 mi SSE 16.1 mph 24.2 mph N/A   Partly Cloudy
1:52 AM 71.1 °F - 69.1 °F 93% 29.81 in 4.0 mi SSE 13.8 mph - N/A   Clear
2:52 AM 71.1 °F - 69.1 °F 93% 29.82 in 3.0 mi South 9.2 mph - N/A   Clear
3:52 AM 70.0 °F - 68.0 °F 93% 29.79 in 3.0 mi SSE 5.8 mph - N/A   Partly Cloudy
4:52 AM 70.0 °F - 68.0 °F 93% 29.78 in 4.0 mi SSE 10.4 mph - N/A   Clear
5:52 AM 70.0 °F - 68.0 °F 93% 29.78 in 4.0 mi SSE 11.5 mph - N/A   Clear
6:33 AM 70.0 °F - 68.0 °F 93% 29.82 in 2.5 mi SSE 10.4 mph - N/A   Clear
6:42 AM 70.0 °F - 68.0 °F 93% 29.83 in 3.0 mi SSE 10.4 mph - N/A   Clear
6:52 AM 70.0 °F - 68.0 °F 93% 29.80 in 3.0 mi SSE 9.2 mph - N/A   Clear
7:52 AM 72.0 °F - 69.1 °F 91% 29.84 in 4.0 mi SSE 5.8 mph - N/A   Clear
8:25 AM 72.0 °F - 69.1 °F 91% 29.87 in 4.0 mi South 5.8 mph - N/A Thunderstorm Scattered Clouds
8:52 AM 73.0 °F - 69.1 °F 87% 29.83 in 5.0 mi SE 8.1 mph - N/A Thunderstorm Partly Cloudy
9:02 AM 73.9 °F - 69.1 °F 85% 29.86 in 5.0 mi SE 8.1 mph - N/A   Haze
9:52 AM 77.0 °F - 70.0 °F 79% 29.80 in 8.0 mi SE 12.7 mph - N/A   Clear
10:52 AM 80.1 °F 82.3 °F 66.9 °F 64% 29.78 in 10.0 mi South 17.3 mph 24.2 mph N/A   Partly Cloudy
11:52 AM 81.0 °F 83.3 °F 66.9 °F 62% 29.77 in 10.0 mi South 16.1 mph 21.9 mph N/A   Scattered Clouds
12:52 PM 82.9 °F 85.4 °F 66.9 °F 58% 29.74 in 10.0 mi South 20.7 mph 32.2 mph N/A   Clear
1:52 PM 84.0 °F 87.0 °F 68.0 °F 58% 29.72 in 10.0 mi SSE 21.9 mph 29.9 mph N/A   Clear
2:52 PM 86.0 °F 88.8 °F 66.9 °F 53% 29.69 in 10.0 mi SSE 20.7 mph 28.8 mph N/A   Clear
3:52 PM 87.8 °F 89.4 °F 64.4 °F 46% 29.71 in 10.0 mi South 15.0 mph 26.5 mph N/A   Clear
4:52 PM 86.0 °F 86.3 °F 62.1 °F 44% 29.64 in 10.0 mi South 19.6 mph 29.9 mph N/A   Clear
5:52 PM 84.0 °F 84.5 °F 62.1 °F 47% 29.63 in 10.0 mi SSE 25.3 mph 32.2 mph N/A   Clear
6:52 PM 82.0 °F 83.1 °F 63.0 °F 52% 29.65 in 10.0 mi South 21.9 mph 29.9 mph N/A   Clear
7:52 PM 80.1 °F 81.7 °F 64.0 °F 58% 29.66 in 10.0 mi South 15.0 mph - N/A   Clear
8:16 PM 79.0 °F - 64.9 °F 62% 29.72 in 10.0 mi South 13.8 mph - N/A Thunderstorm Thunderstorm
8:52 PM 78.1 °F - 64.9 °F 64% 29.73 in 10.0 mi WSW 17.3 mph 21.9 mph N/A Thunderstorm Thunderstorm
9:14 PM 72.0 °F - 64.9 °F 78% 29.75 in 2.5 mi South 8.1 mph - 0.14 in Rain , Thunderstorm Light Thunderstorms and Rain
9:21 PM 72.0 °F - 66.0 °F 81% 29.74 in 10.0 mi SSE 12.7 mph - 0.14 in Rain , Thunderstorm Light Thunderstorms and Rain
9:52 PM 73.0 °F - 66.9 °F 81% 29.69 in 10.0 mi SE 12.7 mph - 0.14 in Thunderstorm Thunderstorm
10:52 PM 73.9 °F - 66.9 °F 79% 29.66 in 10.0 mi SE 19.6 mph - N/A Thunderstorm Thunderstorm
11:05 PM 73.9 °F - 66.0 °F 76% 29.74 in 10.0 mi South 10.4 mph 23.0 mph N/A   Clear
11:52 PM 75.0 °F - 66.0 °F 73% 29.70 in 10.0 mi SSE 16.1 mph - N/A   Clear